Private Wetterstation Sandau
Wetterdaten: Mittwoch, 14.11.2012
Datum Zeit Temp. A. Feuchte A. Luftdruck Regen Wind Richtung Richtung Taupunkt Windchill
14.11.2012 00:01 1,5 C 89 % 1034,0 hPa 0,0 l/m 2,5 km/h (1 Bft) O-SO 112 -0,1 C 1,5 C
14.11.2012 00:06 1,4 C 89 % 1034,1 hPa 0,0 l/m 0,0 km/h (0 Bft) O-SO 112 -0,2 C 1,4 C
14.11.2012 00:11 1,4 C 90 % 1033,8 hPa 0,0 l/m 2,2 km/h (1 Bft) O-SO 112 -0,1 C 1,4 C
14.11.2012 00:16 1,3 C 90 % 1034,0 hPa 0,0 l/m 1,8 km/h (1 Bft) O-SO 112 -0,2 C 1,3 C
14.11.2012 00:21 1,3 C 90 % 1034,2 hPa 0,0 l/m 0,0 km/h (0 Bft) O-SO 112 -0,2 C 1,3 C
14.11.2012 00:26 1,3 C 90 % 1034,0 hPa 0,0 l/m 0,0 km/h (0 Bft) O-SO 112 -0,2 C 1,3 C
14.11.2012 00:31 1,3 C 90 % 1034,1 hPa 0,0 l/m 0,0 km/h (0 Bft) O-SO 112 -0,2 C 1,3 C
14.11.2012 00:36 1,3 C 90 % 1034,2 hPa 0,0 l/m 0,0 km/h (0 Bft) O-SO 112 -0,2 C 1,3 C
14.11.2012 00:41 1,3 C 90 % 1034,3 hPa 0,0 l/m 0,0 km/h (0 Bft) O-SO 112 -0,2 C 1,3 C
14.11.2012 00:46 1,2 C 89 % 1034,0 hPa 0,0 l/m 2,5 km/h (1 Bft) O-SO 112 -0,4 C 1,2 C
14.11.2012 00:51 1,2 C 89 % 1034,0 hPa 0,0 l/m 2,9 km/h (1 Bft) SO 135 -0,4 C 1,2 C
14.11.2012 00:56 1,3 C 89 % 1034,0 hPa 0,0 l/m 0,0 km/h (0 Bft) O-SO 112 -0,3 C 1,3 C
14.11.2012 01:01 1,2 C 89 % 1034,1 hPa 0,0 l/m 1,4 km/h (1 Bft) SO 135 -0,4 C 1,2 C
14.11.2012 01:06 1,2 C 90 % 1034,0 hPa 0,0 l/m 0,0 km/h (0 Bft) O-SO 112 -0,3 C 1,2 C
14.11.2012 01:11 1,2 C 90 % 1034,0 hPa 0,0 l/m 5,0 km/h (1 Bft) O-SO 112 -0,3 C -0,2 C
14.11.2012 01:16 1,1 C 90 % 1034,0 hPa 0,0 l/m 3,2 km/h (1 Bft) O-SO 112 -0,4 C 1,1 C
14.11.2012 01:21 1,1 C 90 % 1034,1 hPa 0,0 l/m 2,5 km/h (1 Bft) O-SO 112 -0,4 C 1,1 C
14.11.2012 01:26 1,0 C 90 % 1034,0 hPa 0,0 l/m 0,0 km/h (0 Bft) O-SO 112 -0,5 C 1,0 C
14.11.2012 01:31 1,0 C 90 % 1034,1 hPa 0,0 l/m 0,0 km/h (0 Bft) O-SO 112 -0,5 C 1,0 C
14.11.2012 01:36 0,9 C 90 % 1034,0 hPa 0,0 l/m 0,0 km/h (0 Bft) O-SO 112 -0,6 C 0,9 C
14.11.2012 01:41 0,9 C 90 % 1034,0 hPa 0,0 l/m 0,0 km/h (0 Bft) O-SO 112 -0,6 C 0,9 C
14.11.2012 01:46 0,9 C 90 % 1034,0 hPa 0,0 l/m 1,1 km/h (1 Bft) O-SO 112 -0,6 C 0,9 C
14.11.2012 01:51 0,9 C 90 % 1034,0 hPa 0,0 l/m 2,5 km/h (1 Bft) S-SO 157 -0,6 C 0,9 C
14.11.2012 01:56 0,9 C 90 % 1034,1 hPa 0,0 l/m 1,1 km/h (1 Bft) O-SO 112 -0,6 C 0,9 C
14.11.2012 02:01 0,9 C 90 % 1033,9 hPa 0,0 l/m 0,0 km/h (0 Bft) SO 135 -0,6 C 0,9 C
14.11.2012 02:06 0,9 C 90 % 1034,0 hPa 0,0 l/m 0,0 km/h (0 Bft) SO 135 -0,6 C 0,9 C
14.11.2012 02:11 0,9 C 90 % 1034,1 hPa 0,0 l/m 2,2 km/h (1 Bft) O-SO 112 -0,6 C 0,9 C
14.11.2012 02:16 0,9 C 90 % 1034,0 hPa 0,0 l/m 3,2 km/h (1 Bft) O-SO 112 -0,6 C 0,9 C
14.11.2012 02:21 0,9 C 90 % 1034,0 hPa 0,0 l/m 0,0 km/h (0 Bft) O-SO 112 -0,6 C 0,9 C
14.11.2012 02:26 0,9 C 90 % 1033,8 hPa 0,0 l/m 1,4 km/h (1 Bft) SO 135 -0,6 C 0,9 C
14.11.2012 02:31 0,9 C 90 % 1034,0 hPa 0,0 l/m 4,0 km/h (1 Bft) O-SO 112 -0,6 C 0,9 C
14.11.2012 02:36 0,9 C 91 % 1034,0 hPa 0,0 l/m 2,5 km/h (1 Bft) SO 135 -0,4 C 0,9 C
14.11.2012 02:41 0,9 C 91 % 1034,0 hPa 0,0 l/m 3,6 km/h (1 Bft) SO 135 -0,4 C 0,9 C
14.11.2012 02:46 0,9 C 91 % 1033,9 hPa 0,0 l/m 2,5 km/h (1 Bft) SO 135 -0,4 C 0,9 C
14.11.2012 02:51 0,8 C 91 % 1034,0 hPa 0,0 l/m 3,2 km/h (1 Bft) O-SO 112 -0,5 C 0,8 C
14.11.2012 02:56 0,7 C 91 % 1033,9 hPa 0,0 l/m 1,1 km/h (1 Bft) SO 135 -0,6 C 0,7 C
14.11.2012 03:01 0,6 C 91 % 1033,8 hPa 0,0 l/m 1,4 km/h (1 Bft) SO 135 -0,7 C 0,6 C
14.11.2012 03:06 0,6 C 91 % 1033,8 hPa 0,0 l/m 1,4 km/h (1 Bft) O-SO 112 -0,7 C 0,6 C
14.11.2012 03:11 0,6 C 91 % 1033,8 hPa 0,0 l/m 4,7 km/h (1 Bft) SO 135 -0,7 C -0,8 C
14.11.2012 03:16 0,6 C 91 % 1033,8 hPa 0,0 l/m 1,8 km/h (1 Bft) SO 135 -0,7 C 0,6 C
14.11.2012 03:21 0,6 C 91 % 1033,8 hPa 0,0 l/m 2,9 km/h (1 Bft) SO 135 -0,7 C 0,6 C
14.11.2012 03:26 0,5 C 91 % 1033,7 hPa 0,0 l/m 2,5 km/h (1 Bft) SO 135 -0,8 C 0,5 C
14.11.2012 03:31 0,5 C 91 % 1033,7 hPa 0,0 l/m 3,6 km/h (1 Bft) SO 135 -0,8 C 0,5 C
14.11.2012 03:36 0,4 C 91 % 1033,7 hPa 0,0 l/m 0,0 km/h (0 Bft) SO 135 -0,9 C 0,4 C
14.11.2012 03:41 0,4 C 91 % 1033,8 hPa 0,0 l/m 0,0 km/h (0 Bft) SO 135 -0,9 C 0,4 C
14.11.2012 03:46 0,4 C 91 % 1033,8 hPa 0,0 l/m 2,5 km/h (1 Bft) SO 135 -0,9 C 0,4 C
14.11.2012 03:51 0,4 C 91 % 1033,7 hPa 0,0 l/m 2,9 km/h (1 Bft) O-SO 112 -0,9 C 0,4 C
14.11.2012 03:56 0,4 C 91 % 1033,7 hPa 0,0 l/m 0,0 km/h (0 Bft) SO 135 -0,9 C 0,4 C
14.11.2012 04:01 0,4 C 91 % 1033,7 hPa 0,0 l/m 0,0 km/h (0 Bft) SO 135 -0,9 C 0,4 C
14.11.2012 04:06 0,4 C 91 % 1033,6 hPa 0,0 l/m 2,9 km/h (1 Bft) O-SO 112 -0,9 C 0,4 C
14.11.2012 04:11 0,3 C 91 % 1033,5 hPa 0,0 l/m 0,0 km/h (0 Bft) O-SO 112 -1,0 C 0,3 C
14.11.2012 04:16 0,3 C 91 % 1033,6 hPa 0,0 l/m 0,0 km/h (0 Bft) O-SO 112 -1,0 C 0,3 C
14.11.2012 04:21 0,2 C 91 % 1033,6 hPa 0,0 l/m 2,2 km/h (1 Bft) O-SO 112 -1,1 C 0,2 C
14.11.2012 04:26 0,2 C 91 % 1033,6 hPa 0,0 l/m 4,7 km/h (1 Bft) O-SO 112 -1,1 C -1,2 C
14.11.2012 04:31 0,1 C 91 % 1033,5 hPa 0,0 l/m 3,6 km/h (1 Bft) O-SO 112 -1,2 C 0,1 C
14.11.2012 04:36 0,1 C 91 % 1033,4 hPa 0,0 l/m 3,6 km/h (1 Bft) O-SO 112 -1,2 C 0,1 C
14.11.2012 04:41 0,1 C 91 % 1033,4 hPa 0,0 l/m 0,0 km/h (0 Bft) SO 135 -1,2 C 0,1 C
14.11.2012 04:46 0,1 C 91 % 1033,5 hPa 0,0 l/m 0,0 km/h (0 Bft) SO 135 -1,2 C 0,1 C
14.11.2012 04:51 0,1 C 91 % 1033,5 hPa 0,0 l/m 0,0 km/h (0 Bft) SO 135 -1,2 C 0,1 C
14.11.2012 04:56 0,1 C 91 % 1033,4 hPa 0,0 l/m 1,1 km/h (1 Bft) SO 135 -1,2 C 0,1 C
14.11.2012 05:01 0,1 C 91 % 1033,4 hPa 0,0 l/m 3,2 km/h (1 Bft) SO 135 -1,2 C 0,1 C
14.11.2012 05:06 0,1 C 91 % 1033,4 hPa 0,0 l/m 0,0 km/h (0 Bft) O-SO 112 -1,2 C 0,1 C
14.11.2012 05:11 -0,1 C 91 % 1033,5 hPa 0,0 l/m 4,3 km/h (1 Bft) O-SO 112 -1,4 C -0,1 C
14.11.2012 05:16 -0,1 C 91 % 1033,5 hPa 0,0 l/m 2,5 km/h (1 Bft) O-SO 112 -1,4 C -0,1 C
14.11.2012 05:21 -0,1 C 91 % 1033,6 hPa 0,0 l/m 4,0 km/h (1 Bft) O-SO 112 -1,4 C -0,1 C
14.11.2012 05:26 -0,1 C 91 % 1033,6 hPa 0,0 l/m 2,5 km/h (1 Bft) SO 135 -1,4 C -0,1 C
14.11.2012 05:31 -0,1 C 91 % 1033,5 hPa 0,0 l/m 5,4 km/h (1 Bft) SO 135 -1,4 C -1,9 C
14.11.2012 05:36 -0,1 C 91 % 1033,4 hPa 0,0 l/m 0,0 km/h (0 Bft) SO 135 -1,4 C -0,1 C
14.11.2012 05:41 -0,1 C 91 % 1033,3 hPa 0,0 l/m 1,1 km/h (1 Bft) O-SO 112 -1,4 C -0,1 C
14.11.2012 05:46 -0,1 C 91 % 1033,3 hPa 0,0 l/m 2,2 km/h (1 Bft) O-SO 112 -1,4 C -0,1 C
14.11.2012 05:51 -0,1 C 91 % 1033,4 hPa 0,0 l/m 0,0 km/h (0 Bft) O-SO 112 -1,4 C -0,1 C
14.11.2012 05:56 -0,1 C 91 % 1033,3 hPa 0,0 l/m 1,1 km/h (1 Bft) SO 135 -1,4 C -0,1 C
14.11.2012 06:01 -0,1 C 91 % 1033,4 hPa 0,0 l/m 0,0 km/h (0 Bft) SO 135 -1,4 C -0,1 C
14.11.2012 06:06 -0,1 C 91 % 1033,3 hPa 0,0 l/m 0,0 km/h (0 Bft) SO 135 -1,4 C -0,1 C
14.11.2012 06:11 -0,2 C 92 % 1033,3 hPa 0,0 l/m 0,0 km/h (0 Bft) SO 135 -1,3 C -0,2 C
14.11.2012 06:16 -0,2 C 91 % 1033,3 hPa 0,0 l/m 0,0 km/h (0 Bft) SO 135 -1,5 C -0,2 C
14.11.2012 06:21 -0,2 C 92 % 1033,3 hPa 0,0 l/m 0,0 km/h (0 Bft) SO 135 -1,3 C -0,2 C
14.11.2012 06:26 -0,3 C 92 % 1033,3 hPa 0,0 l/m 0,0 km/h (0 Bft) SO 135 -1,4 C -0,3 C
14.11.2012 06:31 -0,4 C 92 % 1033,4 hPa 0,0 l/m 0,0 km/h (0 Bft) SO 135 -1,5 C -0,4 C
14.11.2012 06:36 -0,4 C 92 % 1033,3 hPa 0,0 l/m 0,0 km/h (0 Bft) SO 135 -1,5 C -0,4 C
14.11.2012 06:41 -0,4 C 92 % 1033,4 hPa 0,0 l/m 2,5 km/h (1 Bft) O-SO 112 -1,5 C -0,4 C
14.11.2012 06:46 -0,5 C 92 % 1033,4 hPa 0,0 l/m 1,4 km/h (1 Bft) O-SO 112 -1,6 C -0,5 C
14.11.2012 06:51 -0,5 C 92 % 1033,5 hPa 0,0 l/m 3,6 km/h (1 Bft) SO 135 -1,6 C -0,5 C
14.11.2012 06:56 -0,6 C 92 % 1033,3 hPa 0,0 l/m 0,0 km/h (0 Bft) SO 135 -1,7 C -0,6 C
14.11.2012 07:01 -0,6 C 92 % 1033,4 hPa 0,0 l/m 2,5 km/h (1 Bft) O-SO 112 -1,7 C -0,6 C
14.11.2012 07:06 -0,6 C 92 % 1033,4 hPa 0,0 l/m 4,7 km/h (1 Bft) O-SO 112 -1,7 C -2,1 C
14.11.2012 07:11 -0,6 C 92 % 1033,4 hPa 0,0 l/m 0,0 km/h (0 Bft) SO 135 -1,7 C -0,6 C
14.11.2012 07:16 -0,7 C 92 % 1033,5 hPa 0,0 l/m 1,8 km/h (1 Bft) SO 135 -1,8 C -0,7 C
14.11.2012 07:21 -0,7 C 92 % 1033,2 hPa 0,0 l/m 0,0 km/h (0 Bft) O-SO 112 -1,8 C -0,7 C
14.11.2012 07:26 -0,7 C 92 % 1033,4 hPa 0,0 l/m 0,0 km/h (0 Bft) O-SO 112 -1,8 C -0,7 C
14.11.2012 07:31 -0,7 C 92 % 1033,4 hPa 0,0 l/m 0,0 km/h (0 Bft) O-SO 112 -1,8 C -0,7 C
14.11.2012 07:36 -0,7 C 92 % 1033,6 hPa 0,0 l/m 1,1 km/h (1 Bft) O-SO 112 -1,8 C -0,7 C
14.11.2012 07:41 -0,7 C 92 % 1033,5 hPa 0,0 l/m 0,0 km/h (0 Bft) O-SO 112 -1,8 C -0,7 C
14.11.2012 07:46 -0,7 C 92 % 1033,3 hPa 0,0 l/m 1,4 km/h (1 Bft) SO 135 -1,8 C -0,7 C
14.11.2012 07:51 -0,7 C 92 % 1033,6 hPa 0,0 l/m 0,0 km/h (0 Bft) O-SO 112 -1,8 C -0,7 C
14.11.2012 07:56 -0,7 C 92 % 1033,6 hPa 0,0 l/m 2,2 km/h (1 Bft) O-SO 112 -1,8 C -0,7 C
14.11.2012 08:01 -0,7 C 92 % 1033,4 hPa 0,0 l/m 0,0 km/h (0 Bft) O-SO 112 -1,8 C -0,7 C
14.11.2012 08:06 -0,7 C 92 % 1033,4 hPa 0,0 l/m 2,9 km/h (1 Bft) SO 135 -1,8 C -0,7 C
14.11.2012 08:11 -0,7 C 92 % 1033,4 hPa 0,0 l/m 2,2 km/h (1 Bft) SO 135 -1,8 C -0,7 C
14.11.2012 08:16 -0,6 C 92 % 1033,4 hPa 0,0 l/m 2,2 km/h (1 Bft) O-SO 112 -1,7 C -0,6 C
14.11.2012 08:21 -0,6 C 92 % 1033,5 hPa 0,0 l/m 3,2 km/h (1 Bft) SO 135 -1,7 C -0,6 C
14.11.2012 08:26 -0,6 C 92 % 1033,5 hPa 0,0 l/m 1,4 km/h (1 Bft) SO 135 -1,7 C -0,6 C
14.11.2012 08:31 -0,5 C 92 % 1033,6 hPa 0,0 l/m 2,9 km/h (1 Bft) O-SO 112 -1,6 C -0,5 C
14.11.2012 08:36 -0,5 C 92 % 1033,6 hPa 0,0 l/m 0,0 km/h (0 Bft) SO 135 -1,6 C -0,5 C
14.11.2012 08:41 -0,4 C 92 % 1033,7 hPa 0,0 l/m 2,5 km/h (1 Bft) O-SO 112 -1,5 C -0,4 C
14.11.2012 08:46 -0,2 C 92 % 1033,4 hPa 0,0 l/m 2,2 km/h (1 Bft) SO 135 -1,3 C -0,2 C
14.11.2012 08:51 -0,2 C 92 % 1033,6 hPa 0,0 l/m 6,5 km/h (2 Bft) O-SO 112 -1,3 C -2,5 C
14.11.2012 08:56 -0,1 C 92 % 1033,7 hPa 0,0 l/m 0,0 km/h (0 Bft) O-SO 112 -1,2 C -0,1 C
14.11.2012 09:01 -0,1 C 92 % 1033,7 hPa 0,0 l/m 3,2 km/h (1 Bft) O-SO 112 -1,2 C -0,1 C
14.11.2012 09:06 -0,1 C 92 % 1033,8 hPa 0,0 l/m 2,2 km/h (1 Bft) SO 135 -1,2 C -0,1 C
14.11.2012 09:11 0,1 C 92 % 1033,8 hPa 0,0 l/m 0,0 km/h (0 Bft) SO 135 -1,0 C 0,1 C
14.11.2012 09:16 0,2 C 92 % 1033,8 hPa 0,0 l/m 2,2 km/h (1 Bft) SO 135 -0,9 C 0,2 C
14.11.2012 09:21 0,3 C 92 % 1033,7 hPa 0,0 l/m 3,6 km/h (1 Bft) SO 135 -0,8 C 0,3 C
14.11.2012 09:26 0,4 C 92 % 1033,6 hPa 0,0 l/m 0,0 km/h (0 Bft) SO 135 -0,7 C 0,4 C
14.11.2012 09:31 0,5 C 92 % 1033,7 hPa 0,0 l/m 2,2 km/h (1 Bft) O-SO 112 -0,6 C 0,5 C
14.11.2012 09:36 0,6 C 92 % 1033,7 hPa 0,0 l/m 5,4 km/h (1 Bft) O-SO 112 -0,5 C -1,1 C
14.11.2012 09:41 0,7 C 92 % 1033,8 hPa 0,0 l/m 2,9 km/h (1 Bft) S-SO 157 -0,4 C 0,7 C
14.11.2012 09:46 0,9 C 92 % 1033,7 hPa 0,0 l/m 2,9 km/h (1 Bft) SO 135 -0,2 C 0,9 C
14.11.2012 09:51 1,1 C 92 % 1033,8 hPa 0,0 l/m 2,5 km/h (1 Bft) SO 135 -0,1 C 1,1 C
14.11.2012 09:56 1,3 C 92 % 1033,8 hPa 0,0 l/m 2,9 km/h (1 Bft) O-SO 112 0,1 C 1,3 C
14.11.2012 10:01 1,3 C 92 % 1033,6 hPa 0,0 l/m 4,7 km/h (1 Bft) O-SO 112 0,1 C 0,0 C
14.11.2012 10:06 1,4 C 92 % 1033,6 hPa 0,0 l/m 5,8 km/h (2 Bft) O-SO 112 0,2 C -0,3 C
14.11.2012 10:11 1,6 C 92 % 1033,5 hPa 0,0 l/m 1,4 km/h (1 Bft) O 90 0,4 C 1,6 C
14.11.2012 10:16 1,6 C 92 % 1033,6 hPa 0,0 l/m 4,3 km/h (1 Bft) NO 45 0,4 C 1,6 C
14.11.2012 10:21 1,8 C 92 % 1033,7 hPa 0,0 l/m 3,2 km/h (1 Bft) O-NO 67 0,6 C 1,8 C
14.11.2012 10:26 1,9 C 92 % 1033,7 hPa 0,0 l/m 1,1 km/h (1 Bft) O-SO 112 0,7 C 1,9 C
14.11.2012 10:31 2,1 C 92 % 1033,6 hPa 0,0 l/m 0,0 km/h (0 Bft) O 90 0,9 C 2,1 C
14.11.2012 10:36 2,2 C 92 % 1033,7 hPa 0,0 l/m 3,2 km/h (1 Bft) O 90 1,0 C 2,2 C
14.11.2012 10:41 2,4 C 92 % 1033,8 hPa 0,0 l/m 6,1 km/h (2 Bft) O 90 1,2 C 0,7 C
14.11.2012 10:46 2,5 C 92 % 1033,6 hPa 0,0 l/m 6,1 km/h (2 Bft) S-SO 157 1,3 C 0,8 C
14.11.2012 10:51 2,7 C 92 % 1033,5 hPa 0,0 l/m 6,1 km/h (2 Bft) O-SO 112 1,5 C 1,0 C
14.11.2012 10:56 2,9 C 91 % 1033,4 hPa 0,0 l/m 0,0 km/h (0 Bft) SO 135 1,6 C 2,9 C
14.11.2012 11:01 3,1 C 91 % 1033,4 hPa 0,0 l/m 4,3 km/h (1 Bft) S-SO 157 1,8 C 3,1 C
14.11.2012 11:06 3,3 C 91 % 1033,3 hPa 0,0 l/m 4,0 km/h (1 Bft) O-SO 112 2,0 C 3,3 C
14.11.2012 11:11 3,4 C 91 % 1033,3 hPa 0,0 l/m 2,2 km/h (1 Bft) O 90 2,1 C 3,4 C
14.11.2012 11:16 3,6 C 91 % 1033,2 hPa 0,0 l/m 4,0 km/h (1 Bft) O 90 2,3 C 3,6 C
14.11.2012 11:21 3,8 C 90 % 1033,3 hPa 0,0 l/m 5,4 km/h (1 Bft) O 90 2,3 C 2,6 C
14.11.2012 11:26 3,8 C 90 % 1033,2 hPa 0,0 l/m 6,5 km/h (2 Bft) O-SO 112 2,3 C 2,2 C
14.11.2012 11:31 3,9 C 90 % 1033,1 hPa 0,0 l/m 5,0 km/h (1 Bft) O-NO 67 2,4 C 2,8 C
14.11.2012 11:36 4,1 C 90 % 1033,1 hPa 0,0 l/m 3,6 km/h (1 Bft) O-NO 67 2,6 C 4,1 C
14.11.2012 11:41 4,2 C 90 % 1033,0 hPa 0,0 l/m 5,0 km/h (1 Bft) O-SO 112 2,7 C 3,2 C
14.11.2012 11:46 4,3 C 89 % 1033,0 hPa 0,0 l/m 2,2 km/h (1 Bft) SO 135 2,7 C 4,3 C
14.11.2012 11:51 4,4 C 89 % 1032,9 hPa 0,0 l/m 1,1 km/h (1 Bft) O 90 2,7 C 4,4 C
14.11.2012 11:56 4,7 C 89 % 1032,9 hPa 0,0 l/m 2,9 km/h (1 Bft) O-SO 112 3,0 C 4,7 C
14.11.2012 12:01 4,8 C 88 % 1032,8 hPa 0,0 l/m 0,0 km/h (0 Bft) O-SO 112 3,0 C 4,8 C
14.11.2012 12:06 4,9 C 88 % 1032,7 hPa 0,0 l/m 3,2 km/h (1 Bft) SO 135 3,1 C 4,9 C
14.11.2012 12:11 5,0 C 88 % 1032,7 hPa 0,0 l/m 6,5 km/h (2 Bft) O-SO 112 3,2 C 3,6 C
14.11.2012 12:16 5,2 C 88 % 1032,6 hPa 0,0 l/m 4,0 km/h (1 Bft) O-SO 112 3,4 C 5,2 C
14.11.2012 12:21 5,3 C 88 % 1032,5 hPa 0,0 l/m 4,7 km/h (1 Bft) O-SO 112 3,5 C 4,5 C
14.11.2012 12:26 5,4 C 87 % 1032,4 hPa 0,0 l/m 6,1 km/h (2 Bft) O-SO 112 3,4 C 4,2 C
14.11.2012 12:31 5,6 C 87 % 1032,4 hPa 0,0 l/m 2,9 km/h (1 Bft) O-SO 112 3,6 C 5,6 C
14.11.2012 12:36 5,8 C 87 % 1032,5 hPa 0,0 l/m 3,6 km/h (1 Bft) O-SO 112 3,8 C 5,8 C
14.11.2012 12:41 5,9 C 87 % 1032,2 hPa 0,0 l/m 5,8 km/h (2 Bft) SO 135 3,9 C 4,8 C
14.11.2012 12:46 6,1 C 86 % 1032,1 hPa 0,0 l/m 4,0 km/h (1 Bft) S-SO 157 3,9 C 6,1 C
14.11.2012 12:51 6,3 C 86 % 1032,1 hPa 0,0 l/m 1,1 km/h (1 Bft) O-SO 112 4,1 C 6,3 C
14.11.2012 12:56 6,4 C 85 % 1032,1 hPa 0,0 l/m 2,9 km/h (1 Bft) O-SO 112 4,1 C 6,4 C
14.11.2012 13:01 6,6 C 85 % 1032,1 hPa 0,0 l/m 4,7 km/h (1 Bft) O-NO 67 4,3 C 6,0 C
14.11.2012 13:06 6,7 C 85 % 1031,9 hPa 0,0 l/m 1,8 km/h (1 Bft) O-SO 112 4,4 C 6,7 C
14.11.2012 13:11 6,8 C 84 % 1032,0 hPa 0,0 l/m 4,0 km/h (1 Bft) O 90 4,3 C 6,8 C
14.11.2012 13:16 6,9 C 83 % 1031,7 hPa 0,0 l/m 4,0 km/h (1 Bft) O 90 4,2 C 6,9 C
14.11.2012 13:21 7,0 C 83 % 1031,9 hPa 0,0 l/m 0,0 km/h (0 Bft) SO 135 4,3 C 7,0 C
14.11.2012 13:26 7,1 C 82 % 1031,8 hPa 0,0 l/m 0,0 km/h (0 Bft) O-SO 112 4,2 C 7,1 C
14.11.2012 13:31 7,1 C 82 % 1031,8 hPa 0,0 l/m 2,9 km/h (1 Bft) O-SO 112 4,2 C 7,1 C
14.11.2012 13:36 7,2 C 82 % 1031,6 hPa 0,0 l/m 1,8 km/h (1 Bft) SO 135 4,3 C 7,2 C
14.11.2012 13:41 7,2 C 82 % 1031,6 hPa 0,0 l/m 2,5 km/h (1 Bft) O 90 4,3 C 7,2 C
14.11.2012 13:46 7,3 C 81 % 1031,7 hPa 0,0 l/m 2,5 km/h (1 Bft) O-SO 112 4,3 C 7,3 C
14.11.2012 13:51 7,3 C 81 % 1031,6 hPa 0,0 l/m 1,1 km/h (1 Bft) O-SO 112 4,3 C 7,3 C
14.11.2012 13:56 7,3 C 81 % 1031,7 hPa 0,0 l/m 1,4 km/h (1 Bft) O-SO 112 4,3 C 7,3 C
14.11.2012 14:01 7,3 C 80 % 1031,5 hPa 0,0 l/m 0,0 km/h (0 Bft) SO 135 4,1 C 7,3 C
14.11.2012 14:06 7,3 C 80 % 1031,5 hPa 0,0 l/m 7,2 km/h (2 Bft) SO 135 4,1 C 6,0 C
14.11.2012 14:11 7,4 C 80 % 1031,3 hPa 0,0 l/m 2,2 km/h (1 Bft) O-SO 112 4,2 C 7,4 C
14.11.2012 14:16 7,4 C 79 % 1031,4 hPa 0,0 l/m 4,0 km/h (1 Bft) O-SO 112 4,0 C 7,4 C
14.11.2012 14:21 7,4 C 79 % 1031,3 hPa 0,0 l/m 3,2 km/h (1 Bft) SO 135 4,0 C 7,4 C
14.11.2012 14:26 7,4 C 79 % 1031,3 hPa 0,0 l/m 4,7 km/h (1 Bft) O 90 4,0 C 6,9 C
14.11.2012 14:31 7,5 C 79 % 1031,2 hPa 0,0 l/m 2,5 km/h (1 Bft) O-SO 112 4,1 C 7,5 C
14.11.2012 14:36 7,5 C 79 % 1031,0 hPa 0,0 l/m 6,1 km/h (2 Bft) O-SO 112 4,1 C 6,6 C
14.11.2012 14:41 7,5 C 78 % 1031,3 hPa 0,0 l/m 1,8 km/h (1 Bft) S-SO 157 3,9 C 7,5 C
14.11.2012 14:46 7,5 C 79 % 1031,3 hPa 0,0 l/m 1,8 km/h (1 Bft) O-SO 112 4,1 C 7,5 C
14.11.2012 14:51 7,5 C 79 % 1031,1 hPa 0,0 l/m 3,2 km/h (1 Bft) O-SO 112 4,1 C 7,5 C
14.11.2012 14:56 7,4 C 79 % 1031,1 hPa 0,0 l/m 7,9 km/h (2 Bft) O 90 4,0 C 6,0 C
14.11.2012 15:01 7,4 C 79 % 1031,2 hPa 0,0 l/m 5,8 km/h (2 Bft) SO 135 4,0 C 6,5 C
14.11.2012 15:06 7,3 C 79 % 1031,3 hPa 0,0 l/m 4,0 km/h (1 Bft) S-SO 157 3,9 C 7,3 C
14.11.2012 15:11 7,3 C 79 % 1031,2 hPa 0,0 l/m 5,4 km/h (1 Bft) SO 135 3,9 C 6,6 C
14.11.2012 15:16 7,2 C 79 % 1031,0 hPa 0,0 l/m 2,2 km/h (1 Bft) O-SO 112 3,8 C 7,2 C
14.11.2012 15:21 7,0 C 79 % 1031,0 hPa 0,0 l/m 0,0 km/h (0 Bft) SO 135 3,6 C 7,0 C
14.11.2012 15:26 6,9 C 79 % 1030,9 hPa 0,0 l/m 1,8 km/h (1 Bft) SO 135 3,5 C 6,9 C
14.11.2012 15:31 6,8 C 79 % 1031,0 hPa 0,0 l/m 1,4 km/h (1 Bft) O-SO 112 3,4 C 6,8 C
14.11.2012 15:36 6,7 C 80 % 1031,0 hPa 0,0 l/m 1,8 km/h (1 Bft) O-SO 112 3,5 C 6,7 C
14.11.2012 15:41 6,6 C 80 % 1030,9 hPa 0,0 l/m 1,8 km/h (1 Bft) SO 135 3,4 C 6,6 C
14.11.2012 15:46 6,4 C 80 % 1030,7 hPa 0,0 l/m 2,5 km/h (1 Bft) SO 135 3,2 C 6,4 C
14.11.2012 15:51 6,3 C 80 % 1030,9 hPa 0,0 l/m 1,4 km/h (1 Bft) SO 135 3,1 C 6,3 C
14.11.2012 15:56 6,2 C 80 % 1030,9 hPa 0,0 l/m 0,0 km/h (0 Bft) SO 135 3,0 C 6,2 C
14.11.2012 16:01 5,9 C 81 % 1030,9 hPa 0,0 l/m 2,5 km/h (1 Bft) SO 135 2,9 C 5,9 C
14.11.2012 16:06 5,8 C 81 % 1031,1 hPa 0,0 l/m 1,1 km/h (1 Bft) SO 135 2,8 C 5,8 C
14.11.2012 16:11 5,6 C 81 % 1030,9 hPa 0,0 l/m 2,5 km/h (1 Bft) O-SO 112 2,6 C 5,6 C
14.11.2012 16:16 5,4 C 82 % 1030,9 hPa 0,0 l/m 0,0 km/h (0 Bft) O-SO 112 2,6 C 5,4 C
14.11.2012 16:21 5,2 C 82 % 1030,9 hPa 0,0 l/m 2,9 km/h (1 Bft) O-SO 112 2,4 C 5,2 C
14.11.2012 16:26 5,1 C 82 % 1030,8 hPa 0,0 l/m 0,0 km/h (0 Bft) O-SO 112 2,3 C 5,1 C
14.11.2012 16:31 4,9 C 83 % 1030,9 hPa 0,0 l/m 0,0 km/h (0 Bft) O-SO 112 2,3 C 4,9 C
14.11.2012 16:36 4,8 C 83 % 1030,8 hPa 0,0 l/m 0,0 km/h (0 Bft) O-SO 112 2,2 C 4,8 C
14.11.2012 16:41 4,6 C 83 % 1030,8 hPa 0,0 l/m 2,2 km/h (1 Bft) SO 135 2,0 C 4,6 C
14.11.2012 16:46 4,4 C 83 % 1030,8 hPa 0,0 l/m 0,0 km/h (0 Bft) SO 135 1,8 C 4,4 C
14.11.2012 16:51 4,3 C 84 % 1030,9 hPa 0,0 l/m 1,1 km/h (1 Bft) SO 135 1,8 C 4,3 C
14.11.2012 16:56 4,1 C 84 % 1030,9 hPa 0,0 l/m 1,4 km/h (1 Bft) SO 135 1,6 C 4,1 C
14.11.2012 17:01 3,9 C 85 % 1030,9 hPa 0,0 l/m 3,6 km/h (1 Bft) SO 135 1,6 C 3,9 C
14.11.2012 17:06 3,9 C 85 % 1030,9 hPa 0,0 l/m 0,0 km/h (0 Bft) SO 135 1,6 C 3,9 C
14.11.2012 17:11 3,8 C 85 % 1031,0 hPa 0,0 l/m 0,0 km/h (0 Bft) SO 135 1,5 C 3,8 C
14.11.2012 17:16 3,6 C 85 % 1031,0 hPa 0,0 l/m 0,0 km/h (0 Bft) SO 135 1,3 C 3,6 C
14.11.2012 17:21 3,4 C 85 % 1030,9 hPa 0,0 l/m 1,4 km/h (1 Bft) SO 135 1,1 C 3,4 C
14.11.2012 17:26 3,3 C 86 % 1031,0 hPa 0,0 l/m 0,0 km/h (0 Bft) SO 135 1,2 C 3,3 C
14.11.2012 17:31 3,2 C 86 % 1030,9 hPa 0,0 l/m 0,0 km/h (0 Bft) SO 135 1,1 C 3,2 C
14.11.2012 17:36 3,1 C 86 % 1030,8 hPa 0,0 l/m 1,4 km/h (1 Bft) SO 135 1,0 C 3,1 C
14.11.2012 17:41 2,9 C 87 % 1030,8 hPa 0,0 l/m 3,6 km/h (1 Bft) O-SO 112 1,0 C 2,9 C
14.11.2012 17:46 2,9 C 86 % 1030,8 hPa 0,0 l/m 3,2 km/h (1 Bft) O-SO 112 0,8 C 2,9 C
14.11.2012 17:51 2,8 C 87 % 1030,6 hPa 0,0 l/m 3,2 km/h (1 Bft) O-SO 112 0,9 C 2,8 C
14.11.2012 17:56 2,8 C 88 % 1030,6 hPa 0,0 l/m 2,9 km/h (1 Bft) O-SO 112 1,0 C 2,8 C
14.11.2012 18:01 2,8 C 88 % 1030,6 hPa 0,0 l/m 2,5 km/h (1 Bft) O-SO 112 1,0 C 2,8 C
14.11.2012 18:06 2,8 C 88 % 1030,6 hPa 0,0 l/m 1,4 km/h (1 Bft) O-SO 112 1,0 C 2,8 C
14.11.2012 18:11 2,8 C 88 % 1030,5 hPa 0,0 l/m 0,0 km/h (0 Bft) O-SO 112 1,0 C 2,8 C
14.11.2012 18:16 2,7 C 89 % 1030,5 hPa 0,0 l/m 4,7 km/h (1 Bft) O-SO 112 1,1 C 1,6 C
14.11.2012 18:21 2,6 C 89 % 1030,5 hPa 0,0 l/m 2,9 km/h (1 Bft) O-SO 112 1,0 C 2,6 C
14.11.2012 18:26 2,6 C 89 % 1030,3 hPa 0,0 l/m 2,5 km/h (1 Bft) O-SO 112 1,0 C 2,6 C
14.11.2012 18:31 2,6 C 88 % 1030,4 hPa 0,0 l/m 0,0 km/h (0 Bft) O-SO 112 0,8 C 2,6 C
14.11.2012 18:36 2,5 C 88 % 1030,5 hPa 0,0 l/m 0,0 km/h (0 Bft) O-SO 112 0,7 C 2,5 C
14.11.2012 18:41 2,4 C 89 % 1030,6 hPa 0,0 l/m 0,0 km/h (0 Bft) O-SO 112 0,8 C 2,4 C
14.11.2012 18:46 2,4 C 89 % 1030,5 hPa 0,0 l/m 3,6 km/h (1 Bft) O-SO 112 0,8 C 2,4 C
14.11.2012 18:51 2,4 C 89 % 1030,6 hPa 0,0 l/m 0,0 km/h (0 Bft) O-SO 112 0,8 C 2,4 C
14.11.2012 18:56 2,3 C 89 % 1030,5 hPa 0,0 l/m 1,8 km/h (1 Bft) O-SO 112 0,7 C 2,3 C
14.11.2012 19:01 2,1 C 89 % 1030,6 hPa 0,0 l/m 0,0 km/h (0 Bft) O-SO 112 0,5 C 2,1 C
14.11.2012 19:06 2,1 C 89 % 1030,4 hPa 0,0 l/m 2,5 km/h (1 Bft) O-SO 112 0,5 C 2,1 C
14.11.2012 19:11 2,1 C 89 % 1030,3 hPa 0,0 l/m 2,5 km/h (1 Bft) O-SO 112 0,5 C 2,1 C
14.11.2012 19:16 2,1 C 89 % 1030,3 hPa 0,0 l/m 4,3 km/h (1 Bft) O-SO 112 0,5 C 2,1 C
14.11.2012 19:21 2,1 C 90 % 1030,2 hPa 0,0 l/m 2,5 km/h (1 Bft) O-SO 112 0,6 C 2,1 C
14.11.2012 19:26 1,9 C 90 % 1030,2 hPa 0,0 l/m 4,3 km/h (1 Bft) O-SO 112 0,4 C 1,9 C
14.11.2012 19:31 1,9 C 90 % 1030,3 hPa 0,0 l/m 3,6 km/h (1 Bft) O-SO 112 0,4 C 1,9 C
14.11.2012 19:36 1,9 C 90 % 1030,2 hPa 0,0 l/m 2,5 km/h (1 Bft) O-SO 112 0,4 C 1,9 C
14.11.2012 19:41 1,9 C 90 % 1030,2 hPa 0,0 l/m 4,0 km/h (1 Bft) SO 135 0,4 C 1,9 C
14.11.2012 19:46 1,9 C 90 % 1030,0 hPa 0,0 l/m 4,0 km/h (1 Bft) O-SO 112 0,4 C 1,9 C
14.11.2012 19:51 1,9 C 90 % 1030,1 hPa 0,0 l/m 4,0 km/h (1 Bft) SO 135 0,4 C 1,9 C
14.11.2012 19:56 1,9 C 90 % 1029,9 hPa 0,0 l/m 6,1 km/h (2 Bft) O-SO 112 0,4 C 0,1 C
14.11.2012 20:01 1,8 C 90 % 1030,1 hPa 0,0 l/m 0,0 km/h (0 Bft) O-SO 112 0,3 C 1,8 C
14.11.2012 20:06 1,8 C 90 % 1030,1 hPa 0,0 l/m 4,3 km/h (1 Bft) O-SO 112 0,3 C 1,8 C
14.11.2012 20:11 1,6 C 90 % 1030,1 hPa 0,0 l/m 5,4 km/h (1 Bft) O-SO 112 0,1 C 0,1 C
14.11.2012 20:16 1,6 C 90 % 1030,0 hPa 0,0 l/m 4,0 km/h (1 Bft) O-SO 112 0,1 C 1,6 C
14.11.2012 20:21 1,6 C 91 % 1030,0 hPa 0,0 l/m 4,0 km/h (1 Bft) O-SO 112 0,3 C 1,6 C
14.11.2012 20:26 1,5 C 91 % 1029,8 hPa 0,0 l/m 3,2 km/h (1 Bft) SO 135 0,2 C 1,5 C
14.11.2012 20:31 1,5 C 91 % 1029,8 hPa 0,0 l/m 3,2 km/h (1 Bft) O-SO 112 0,2 C 1,5 C
14.11.2012 20:36 1,4 C 91 % 1029,7 hPa 0,0 l/m 4,0 km/h (1 Bft) SO 135 0,1 C 1,4 C
14.11.2012 20:41 1,3 C 91 % 1029,8 hPa 0,0 l/m 2,5 km/h (1 Bft) O-SO 112 -0,0 C 1,3 C
14.11.2012 20:46 1,3 C 91 % 1029,8 hPa 0,0 l/m 0,0 km/h (0 Bft) SO 135 -0,0 C 1,3 C
14.11.2012 20:51 1,3 C 91 % 1029,6 hPa 0,0 l/m 2,5 km/h (1 Bft) SO 135 -0,0 C 1,3 C
14.11.2012 20:56 1,3 C 91 % 1029,7 hPa 0,0 l/m 1,8 km/h (1 Bft) O-SO 112 -0,0 C 1,3 C
14.11.2012 21:01 1,3 C 91 % 1029,8 hPa 0,0 l/m 2,9 km/h (1 Bft) O 90 -0,0 C 1,3 C
14.11.2012 21:06 1,3 C 91 % 1029,6 hPa 0,0 l/m 4,0 km/h (1 Bft) O-SO 112 -0,0 C 1,3 C
14.11.2012 21:11 1,2 C 91 % 1029,7 hPa 0,0 l/m 3,2 km/h (1 Bft) SO 135 -0,1 C 1,2 C
14.11.2012 21:16 1,1 C 91 % 1029,6 hPa 0,0 l/m 5,8 km/h (2 Bft) O-SO 112 -0,2 C -0,7 C
14.11.2012 21:21 0,9 C 91 % 1029,6 hPa 0,0 l/m 4,0 km/h (1 Bft) O-SO 112 -0,4 C 0,9 C
14.11.2012 21:26 0,9 C 91 % 1029,5 hPa 0,0 l/m 4,3 km/h (1 Bft) O 90 -0,4 C 0,9 C
14.11.2012 21:31 0,9 C 91 % 1029,4 hPa 0,0 l/m 0,0 km/h (0 Bft) SO 135 -0,4 C 0,9 C
14.11.2012 21:36 0,8 C 91 % 1029,4 hPa 0,0 l/m 0,0 km/h (0 Bft) SO 135 -0,5 C 0,8 C
14.11.2012 21:41 0,7 C 91 % 1029,4 hPa 0,0 l/m 0,0 km/h (0 Bft) O-SO 112 -0,6 C 0,7 C
14.11.2012 21:46 0,6 C 91 % 1029,3 hPa 0,0 l/m 0,0 km/h (0 Bft) O-SO 112 -0,7 C 0,6 C
14.11.2012 21:51 0,5 C 91 % 1029,1 hPa 0,0 l/m 0,0 km/h (0 Bft) O-SO 112 -0,8 C 0,5 C
14.11.2012 21:56 0,4 C 91 % 1029,1 hPa 0,0 l/m 0,0 km/h (0 Bft) O-SO 112 -0,9 C 0,4 C
14.11.2012 22:01 0,3 C 91 % 1029,2 hPa 0,0 l/m 1,8 km/h (1 Bft) SO 135 -1,0 C 0,3 C
14.11.2012 22:06 0,1 C 91 % 1028,9 hPa 0,0 l/m 4,0 km/h (1 Bft) O-SO 112 -1,2 C 0,1 C
14.11.2012 22:11 0,1 C 91 % 1028,9 hPa 0,0 l/m 1,8 km/h (1 Bft) O-SO 112 -1,2 C 0,1 C
14.11.2012 22:16 -0,1 C 91 % 1029,0 hPa 0,0 l/m 1,8 km/h (1 Bft) O-SO 112 -1,4 C -0,1 C
14.11.2012 22:21 -0,1 C 91 % 1029,1 hPa 0,0 l/m 2,9 km/h (1 Bft) O-SO 112 -1,4 C -0,1 C
14.11.2012 22:26 0,0 C 91 % 1028,7 hPa 0,0 l/m 7,6 km/h (2 Bft) O-SO 112 -1,3 C -2,6 C
14.11.2012 22:31 0,1 C 91 % 1028,9 hPa 0,0 l/m 2,2 km/h (1 Bft) O 90 -1,2 C 0,1 C
14.11.2012 22:36 0,1 C 91 % 1028,9 hPa 0,0 l/m 2,5 km/h (1 Bft) O-NO 67 -1,2 C 0,1 C
14.11.2012 22:41 0,1 C 91 % 1028,8 hPa 0,0 l/m 2,5 km/h (1 Bft) O-NO 67 -1,2 C 0,1 C
14.11.2012 22:46 0,1 C 91 % 1028,9 hPa 0,0 l/m 3,6 km/h (1 Bft) O-SO 112 -1,2 C 0,1 C
14.11.2012 22:51 0,0 C 92 % 1028,6 hPa 0,0 l/m 5,8 km/h (2 Bft) O 90 -1,1 C -1,9 C
14.11.2012 22:56 0,0 C 92 % 1028,6 hPa 0,0 l/m 3,6 km/h (1 Bft) O-SO 112 -1,1 C 0,0 C
14.11.2012 23:01 -0,1 C 92 % 1028,8 hPa 0,0 l/m 3,6 km/h (1 Bft) SO 135 -1,2 C -0,1 C
14.11.2012 23:06 -0,2 C 92 % 1028,6 hPa 0,0 l/m 4,0 km/h (1 Bft) O-SO 112 -1,3 C -0,2 C
14.11.2012 23:11 -0,2 C 92 % 1028,7 hPa 0,0 l/m 1,4 km/h (1 Bft) O-SO 112 -1,3 C -0,2 C
14.11.2012 23:16 -0,4 C 92 % 1028,7 hPa 0,0 l/m 3,2 km/h (1 Bft) O-SO 112 -1,5 C -0,4 C
14.11.2012 23:21 -0,4 C 92 % 1028,4 hPa 0,0 l/m 2,9 km/h (1 Bft) O 90 -1,5 C -0,4 C
14.11.2012 23:26 -0,4 C 92 % 1028,3 hPa 0,0 l/m 2,2 km/h (1 Bft) O 90 -1,5 C -0,4 C
14.11.2012 23:31 -0,5 C 92 % 1028,4 hPa 0,0 l/m 0,0 km/h (0 Bft) SO 135 -1,6 C -0,5 C
14.11.2012 23:36 -0,5 C 92 % 1028,3 hPa 0,0 l/m 2,9 km/h (1 Bft) O-SO 112 -1,6 C -0,5 C
14.11.2012 23:41 -0,5 C 92 % 1028,3 hPa 0,0 l/m 3,2 km/h (1 Bft) SO 135 -1,6 C -0,5 C
14.11.2012 23:46 -0,6 C 92 % 1028,3 hPa 0,0 l/m 3,2 km/h (1 Bft) O-SO 112 -1,7 C -0,6 C
14.11.2012 23:51 -0,6 C 92 % 1028,1 hPa 0,0 l/m 0,0 km/h (0 Bft) O-SO 112 -1,7 C -0,6 C
14.11.2012 23:56 -0,6 C 92 % 1028,2 hPa 0,0 l/m 3,6 km/h (1 Bft) O 90 -1,7 C -0,6 C
_ Min-Zeit 07:16 14:41 23:51 - 00:06 - - 07:16 22:26
Minimum _ -0,7 C 78 % 1028,1 hPa - 0,0 km/h (0 Bft) - - -1,8 C -2,6 C
_ Max-Zeit 14:31 06:11 00:41 00:01 14:56 - - 13:06 14:31
Maximum _ 7,5 C 92 % 1034,3 hPa 0,0 l/m 7,9 km/h
O (2 Bft)
- - 4,4 C 7,5 C
Durchschnitt _ 2,1 C 89 % 1032,0 hPa #0,0 l/m 2,3 km/h (1 Bft) O-SO - 0,4 C 1,9 C
(c) by David Heller